Home > Weather > Braunau am Inn > Past weeks

Flag for Austria Past Weather in Braunau am Inn, Upper Austria, Austria — Yesterday and Last 2 Weeks

Now
64 °F

Passing clouds.


Feels Like: 64 °F
Forecast: 61 / 77 °F
Wind: N/A

Location: Salzburg-Flughafen

Current Time: Aug 28, 2016 at 4:34:19 AM

Latest Report: Aug 28, 2016 at 3:00 AM


Visibility: 11 mi

Pressure: 30.03 "Hg

Humidity: 93%

Dew Point: 62 °F

Location of Braunau am InnLocation

Past Weather in Braunau am Inn — Graph

°F

Braunau am Inn Temperature Yesterday

Maximum temperature yesterday: 86 °F (at 4:00 PM)
Minimum temperature yesterday: 64 °F (at 5:00 AM)
Average temperature yesterday: 75 °F

High & Low Weather Summary for the Past Weeks

 TemperatureHumidityPressure
High86 °F (Aug 27, 4:00 PM)99% (Aug 13, 3:00 AM)30.43 "Hg (Aug 13, 3:00 AM)
Low53 °F (Aug 23, 6:00 AM)39% (Aug 20, 3:00 PM)29.78 "Hg (Aug 18, 3:00 PM)
Average67 °F77%30.08 "Hg
* Reported Aug 13 3:00 AM — Aug 28 3:00 AM, Braunau am Inn, Weather by CustomWeather, © 2016

Note: Actual official high and low records may vary slightly from our data, if they occured in-between our weather recording intervals... More about our weather records

Advertising

Braunau am Inn Weather History for the Previous 24 Hours

Scroll right to see more
 ConditionsComfort  
Time TempWeatherWind HumidityBarometerVisibility
3:00 AM
Sun, Aug 28
64 °FPassing clouds.N/A93%30.03 "Hg11 mi
2:00 AM64 °FMild.N/A94%30.03 "Hg11 mi
1:00 AM66 °FPassing clouds.N/A91%30.03 "Hg12 mi
12:00 AM66 °FMild.N/A89%30.04 "Hg15 mi
11:00 PM
Sat, Aug 27
69 °FClear.N/A84%30.03 "Hg16 mi
10:00 PM71 °FClear.N/A81%30.02 "Hg22 mi
9:00 PM73 °FClear.N/A79%30.01 "Hg28 mi
8:00 PM77 °FClear.N/A66%29.99 "Hg25 mi
7:00 PM84 °FSunny.N/A51%29.97 "Hg19 mi
6:00 PM85 °FSunny.5 mph45%29.97 "Hg22 mi
5:00 PM86 °FPassing clouds.N/A48%29.98 "Hg10 mi
4:00 PM86 °FPassing clouds.3 mph50%29.99 "Hg18 mi
3:00 PM85 °FPassing clouds.3 mph54%30.01 "Hg15 mi
2:00 PM84 °FPassing clouds.N/A57%30.02 "Hg14 mi
1:00 PM82 °FPassing clouds.N/A63%30.03 "Hg13 mi
12:00 PM80 °FPassing clouds.N/A58%30.05 "Hg17 mi
11:00 AM79 °FPassing clouds.N/A61%30.06 "Hg19 mi
10:00 AM75 °FSunny.N/A65%30.07 "Hg16 mi
9:00 AM71 °FSunny.6 mph73%30.08 "Hg25 mi
8:00 AM68 °FSunny.5 mph79%30.09 "Hg19 mi
7:00 AM66 °FRain. Sunny.5 mph84%30.10 "Hg25 mi
5:00 AM64 °FMild.N/A96%30.11 "Hg9 mi
4:00 AM64 °FPassing clouds.N/A96%30.11 "Hg7 mi
Weather by CustomWeather, © 2016

See weather overviewHow to use our weather pages